Gaylord, MI

2:24 PM EST on February 23, 2017 (GMT -0500)
Otsego County

Weather History for KGLR - August, 2013

Change the Weather History Date:

Wednesday, August 21, 2013

  Actual Average Record
Temperature  
Mean Temperature 78 °F -  
Max Temperature 90 °F 76 °F 99 °F (1955)
Min Temperature 66 °F 51 °F 34 °F (2004)
Cooling Degree Days 12    
Growing Degree Days 28 (Base 50)    
Moisture  
Dew Point 62 °F    
Average Humidity 61    
Maximum Humidity 84    
Minimum Humidity 40    
Precipitation  
Precipitation 0.00 in - - ()
Sea Level Pressure  
Sea Level Pressure 29.99 in    
Wind  
Wind Speed 11 mph (SW)    
Max Wind Speed 22 mph    
Max Gust Speed 29 mph    
Visibility 10 miles    
Events Rain    
Averages and records for this station are not official NWS values.
T = Trace of Precipitation, MM = Missing Value Source: NWS Daily Summary

Daily Weather History Graph

Daily Weather History Graph

Search for Another Location

Airport or City:

Trip Planner

Search our weather history database for the weather conditions in past years. The results will help you decide how hot, cold, wet, or windy it might be!

Date:

Astronomy

Aug. 21, 2013 Rise Set
Actual Time 6:47 AM EDT 8:34 PM EDT
Civil Twilight 6:16 AM EDT 9:06 PM EDT
Nautical Twilight 5:38 AM EDT 9:44 PM EDT
Astronomical Twilight 4:56 AM EDT 10:25 PM EDT
Moon 8:37 PM EDT (8/21) 7:31 AM EDT (8/21)
Length of Visible Light 14h 49m
Length of Day
13h 46m
Full, 100% of the Moon is Illuminated
Aug 21
Full
Aug 28
Last Quarter
Sep 5
New
Sep 12
First Quarter
Sep 19
Full

Hourly Weather History & Observations

Time (EDT) Temp. Heat Index Dew Point Humidity Pressure Visibility Wind Dir Wind Speed Gust Speed Precip Events Conditions
12:53 AM 69.1 °F - 59.0 °F 70% 30.05 in 10.0 mi SSW 6.9 mph - N/A   Clear
1:53 AM 69.1 °F - 60.1 °F 73% 30.04 in 10.0 mi SW 9.2 mph - N/A   Clear
2:53 AM 68.0 °F - 59.0 °F 73% 30.04 in 10.0 mi SW 8.1 mph - N/A   Clear
3:53 AM 68.0 °F - 59.0 °F 73% 30.03 in 10.0 mi SW 10.4 mph - N/A   Clear
4:53 AM 66.9 °F - 60.1 °F 79% 30.03 in 9.0 mi SSW 8.1 mph - N/A   Clear
5:53 AM 66.9 °F - 61.0 °F 81% 30.03 in 8.0 mi SSW 6.9 mph - N/A   Clear
6:53 AM 66.0 °F - 61.0 °F 84% 30.04 in 8.0 mi SSW 9.2 mph - N/A   Clear
7:53 AM 66.9 °F - 62.1 °F 84% 30.04 in 7.0 mi SSW 8.1 mph - N/A   Clear
8:53 AM 72.0 °F - 62.1 °F 71% 30.04 in 10.0 mi SSW 9.2 mph - N/A   Clear
9:53 AM 75.9 °F - 63.0 °F 64% 30.04 in 10.0 mi SW 15.0 mph - N/A   Clear
10:53 AM 80.1 °F 81.5 °F 63.0 °F 56% 30.03 in 10.0 mi WSW 16.1 mph 24.2 mph N/A   Clear
11:53 AM 82.9 °F 84.0 °F 63.0 °F 51% 30.01 in 10.0 mi SW 13.8 mph 25.3 mph N/A   Partly Cloudy
12:53 PM 84.0 °F 84.9 °F 63.0 °F 49% 30.00 in 10.0 mi SW 11.5 mph 23.0 mph N/A   Mostly Cloudy
1:53 PM 87.1 °F 87.8 °F 63.0 °F 44% 29.99 in 10.0 mi SW 21.9 mph 28.8 mph N/A   Scattered Clouds
2:53 PM 87.1 °F 87.8 °F 63.0 °F 44% 29.96 in 10.0 mi SSW 15.0 mph 23.0 mph N/A   Scattered Clouds
3:53 PM 88.0 °F 88.7 °F 63.0 °F 43% 29.94 in 10.0 mi SW 18.4 mph 26.5 mph N/A   Scattered Clouds
4:53 PM 89.1 °F 89.3 °F 62.1 °F 40% 29.94 in 10.0 mi SW 18.4 mph 28.8 mph N/A   Scattered Clouds
5:53 PM 87.1 °F 87.5 °F 62.1 °F 43% 29.92 in 10.0 mi SW 13.8 mph 27.6 mph N/A   Mostly Cloudy
6:53 PM 84.9 °F 85.4 °F 62.1 °F 46% 29.92 in 10.0 mi SW 18.4 mph 26.5 mph N/A   Scattered Clouds
7:53 PM 82.9 °F 83.7 °F 62.1 °F 49% 29.93 in 10.0 mi WSW 10.4 mph - N/A   Partly Cloudy
8:53 PM 80.1 °F 81.1 °F 61.0 °F 52% 29.94 in 10.0 mi SW 8.1 mph - N/A   Partly Cloudy
9:53 PM 79.0 °F - 61.0 °F 54% 29.95 in 10.0 mi SW 11.5 mph - N/A   Scattered Clouds
10:53 PM 79.0 °F - 63.0 °F 58% 29.95 in 10.0 mi WSW 13.8 mph - N/A   Scattered Clouds
11:53 PM 70.0 °F - 64.9 °F 84% 29.95 in 10.0 mi West 11.5 mph 20.7 mph 0.00 in Rain Light Rain